DW6120 Weather Reports


Display with metric or nautical units.
time (UTC)temp
F
wind
direction
speed
MPH
gust
MPH
rain 1hr
in
rain 24hr
in
rain mn
in
humidity
%
barometer
mb
20260903074547 70 221 6.0 18.0 0.00 0.00 0.00 18 1004.5
20260903073057 70 131 3.0 18.0 0.00 0.00 0.00 19 1004.3
20260903071544 71 143 10.0 24.0 0.00 0.00 0.00 19 1004.2
20260903070040 71 88 16.0 30.0 0.00 0.00 0.00 18 1004.1
20260903064538 71 120 17.0 30.0 0.00 0.00 0.00 18 1003.9
20260903063037 71 122 17.0 35.0 0.00 0.00 0.00 18 1003.9
20260903061537 71 77 19.0 29.0 0.00 0.00 0.00 19 1003.7
20260903060038 72 111 15.0 26.0 0.00 0.00 0.00 19 1003.5
20260903054536 72 146 9.0 30.0 0.00 0.00 0.00 19 1003.7
20260903053037 72 128 8.0 19.0 0.00 0.00 0.00 19 1003.7
20260903051543 72 211 6.0 11.0 0.00 0.00 0.00 18 1003.9
20260903050034 72 131 3.0 15.0 0.00 0.00 0.00 18 1003.9
20260903044537 73 127 4.0 13.0 0.00 0.00 0.00 18 1003.9
20260903043039 73 135 5.0 11.0 0.00 0.00 0.00 18 1003.8
20260903041535 73 156 4.0 14.0 0.00 0.00 0.00 18 1003.7
20260903040033 74 199 7.0 16.0 0.00 0.00 0.00 17 1003.5
20260903034533 74 201 9.0 19.0 0.00 0.00 0.00 17 1003.4
20260903033032 74 186 6.0 18.0 0.00 0.00 0.00 18 1003.3
20260903031536 74 153 3.0 9.0 0.00 0.00 0.00 18 1003.2
20260903030032 74 188 7.0 17.0 0.00 0.00 0.00 17 1003.3
20260903024532 74 126 8.0 16.0 0.00 0.00 0.00 18 1003.1
20260903023047 74 115 6.0 16.0 0.00 0.00 0.00 18 1002.9
20260903021542 74 155 4.0 11.0 0.00 0.00 0.00 19 1002.9
20260903020029 74 146 4.0 8.0 0.00 0.00 0.00 19 1002.9
20260903014533 75 186 4.0 14.0 0.00 0.00 0.00 19 1002.9
20260903013028 76 207 5.0 13.0 0.00 0.00 0.00 19 1003.0
20260903011527 76 207 6.0 14.0 0.00 0.00 0.00 20 1003.0
20260903010026 77 154 6.0 18.0 0.00 0.00 0.00 20 1003.2
20260903004531 76 118 5.0 12.0 0.00 0.00 0.00 21 1003.3
20260903003029 76 185 5.0 18.0 0.00 0.00 0.00 20 1003.5
20260903001526 77 160 8.0 19.0 0.00 0.00 0.00 20 1003.4
20260903000025 77 232 5.0 18.0 0.00 0.00 0.00 22 1003.4
20260902234524 78 242 8.0 17.0 0.00 0.00 0.00 22 1003.4
20260902233024 79 225 6.0 16.0 0.00 0.00 0.00 23 1003.4
20260902231535 78 280 5.0 19.0 0.00 0.00 0.00 22 1003.7
20260902230022 79 219 11.0 23.0 0.00 0.00 0.00 21 1003.6
20260902224523 80 239 11.0 25.0 0.00 0.00 0.00 21 1003.6
20260902223024 80 179 10.0 22.0 0.00 0.00 0.00 22 1003.7
20260902221519 79 227 10.0 20.0 0.00 0.00 0.00 24 1003.7
20260902220021 78 220 6.0 22.0 0.00 0.00 0.00 26 1004.0
20260902214516 79 197 9.0 22.0 0.00 0.00 0.00 25 1004.1
20260902213014 79 180 11.0 21.0 0.00 0.01 0.00 26 1004.2
20260902211512 79 178 10.0 25.0 0.00 0.01 0.00 26 1004.2
20260902210012 79 240 8.0 22.0 0.00 0.01 0.00 26 1004.1
20260902204514 79 210 7.0 26.0 0.00 0.01 0.00 27 1004.2
20260902203011 79 294 8.0 28.0 0.00 0.01 0.00 26 1004.6
20260902201517 78 217 13.0 28.0 0.00 0.01 0.00 26 1004.6
20260902200008 77 225 12.0 27.0 0.00 0.01 0.00 28 1004.5
20260902194504 77 242 12.0 26.0 0.00 0.01 0.00 30 1004.7
20260902193002 77 207 10.0 27.0 0.00 0.01 0.00 30 1005.2
20260902191503 76 277 11.0 25.0 0.00 0.01 0.00 31 1005.4
20260902190059 77 219 10.0 28.0 0.00 0.01 0.00 33 1005.6
20260902184558 76 109 7.0 23.0 0.00 0.01 0.00 35 1006.2
20260902183101 75 229 8.0 18.0 0.00 0.01 0.00 38 1006.2
20260902181551 73 229 6.0 24.0 0.00 0.01 0.00 38 1006.1
20260902180049 73 238 7.0 22.0 0.00 0.01 0.00 41 1006.3
20260902174559 72 159 8.0 14.0 0.00 0.01 0.00 41 1006.6
20260902173047 71 153 2.0 14.0 0.00 0.01 0.00 45 1006.6
20260902171550 70 161 8.0 16.0 0.00 0.01 0.00 46 1006.7
20260902170046 69 244 8.0 16.0 0.00 0.01 0.00 47 1006.9
20260902164545 69 135 6.0 18.0 0.00 0.01 0.00 47 1006.8
20260902163043 69 141 7.0 16.0 0.00 0.01 0.00 46 1006.7
20260902161543 69 134 8.0 22.0 0.00 0.01 0.00 46 1006.9
20260902160048 68 143 5.0 20.0 0.00 0.01 0.00 46 1006.9
20260902154559 68 201 8.0 18.0 0.00 0.01 0.00 45 1006.9
20260902153041 68 223 3.0 12.0 0.00 0.01 0.00 46 1007.0
20260902151543 68 155 4.0 16.0 0.00 0.01 0.00 45 1006.7
20260902150039 68 198 2.0 10.0 0.00 0.01 0.00 46 1006.8
20260902144540 68 196 4.0 15.0 0.00 0.01 0.00 46 1006.6
20260902143039 68 192 2.0 17.0 0.00 0.01 0.00 44 1006.6
20260902141538 68 173 5.0 24.0 0.00 0.01 0.00 46 1006.6
20260902140046 68 143 7.0 16.0 0.00 0.01 0.00 47 1006.4
20260902134533 68 117 7.0 12.0 0.00 0.01 0.00 47 1006.5
20260902133031 68 128 3.0 17.0 0.00 0.01 0.00 46 1006.3
20260902131531 68 166 4.0 8.0 0.00 0.01 0.00 45 1006.3
20260902130029 68 255 3.0 13.0 0.00 0.01 0.00 45 1006.4
20260902124529 69 144 5.0 18.0 0.00 0.01 0.00 44 1006.4
20260902123027 69 107 4.0 15.0 0.00 0.01 0.00 45 1006.4
20260902121525 69 80 5.0 11.0 0.00 0.01 0.00 45 1006.4
20260902120025 69 208 3.0 22.0 0.00 0.01 0.00 44 1006.4
20260902114538 69 168 7.0 13.0 0.00 0.01 0.00 43 1006.2
20260902113019 70 52 5.0 16.0 0.00 0.01 0.00 43 1006.4
20260902111517 69 84 7.0 14.0 0.00 0.01 0.00 43 1006.4
20260902110020 69 146 4.0 11.0 0.00 0.01 0.00 43 1006.2
20260902104516 70 151 5.0 10.0 0.00 0.01 0.00 41 1006.3
20260902103015 70 188 6.0 15.0 0.00 0.01 0.00 40 1006.4
20260902101513 70 130 6.0 13.0 0.00 0.01 0.00 40 1006.4
20260902100012 70 164 5.0 11.0 0.00 0.01 0.00 40 1006.5
20260902094512 70 150 4.0 13.0 0.00 0.01 0.00 40 1006.6
20260902093017 70 188 8.0 18.0 0.00 0.01 0.00 39 1006.8
20260902091509 70 159 6.0 11.0 0.00 0.01 0.00 40 1006.9
20260902090007 70 180 4.0 17.0 0.00 0.01 0.00 40 1007.0
20260902084516 70 208 5.0 15.0 0.00 0.01 0.00 41 1007.0
20260902083007 70 86 8.0 22.0 0.00 0.01 0.00 40 1007.0
20260902081507 70 122 9.0 21.0 0.00 0.01 0.00 41 1007.1
20260902080004 70 151 5.0 27.0 0.00 0.01 0.00 41 1007.2